����,���ϕ���(m/s),���ϕ���,�ő�u�ԕ���(m/s),�ő啗��������,�C��(��),���x(%),10���Ԉړ��ώZ�J��(mm),1���Ԉړ��ώZ�J��(mm),���J��(mm),�݌v�J��(mm),����(���ώZ)(MJ/m2),����(���ώZ)(min),���n�C��(hPa),�C�ʋC��(hPa)
2022-02-28T00:00:00+09:00,0.7,�k,1.9,�k�k��,0.3,86.4,0,0,0,0,8.46,179,1009.1,1023.8
2022-02-28T00:01:00+09:00,0.7,�k,1.9,�k�k��,0.2,86.2,0,0,0,0,0,0,1009.1,1023.8
2022-02-28T00:02:00+09:00,0.7,�k�k��,1.9,�k�k��,0,85.6,0,0,0,0,0,0,1009,1023.7
2022-02-28T00:03:00+09:00,0.7,�k�k��,1.9,�k�k��,0,85,0,0,0,0,0,0,1009.1,1023.8
2022-02-28T00:04:00+09:00,0.6,�k��,1.9,�k�k��,-0.1,84.8,0,0,0,0,0,0,1009.1,1023.8
2022-02-28T00:05:00+09:00,0.6,�k��,1.9,�k�k��,-0.3,84.8,0,0,0,0,0,0,1009.1,1023.8
2022-02-28T00:06:00+09:00,0.6,�k��,1.9,�k�k��,-0.1,85.2,0,0,0,0,0,0,1009.1,1023.8
2022-02-28T00:07:00+09:00,0.6,�k��,1.9,�k�k��,-0.2,85.7,0,0,0,0,0,0,1009.1,1023.8
2022-02-28T00:08:00+09:00,0.6,�k��,1.5,�k��,0,86.4,0,0,0,0,0,0,1009.1,1023.8
2022-02-28T00:09:00+09:00,0.6,�k�k��,1.7,�k��,0,86.9,0,0,0,0,0,0,1009.1,1023.8
2022-02-28T00:10:00+09:00,0.7,�k�k��,2.1,�k�k��,0,86.9,0,0,0,0,0,0,1009.1,1023.8
2022-02-28T00:11:00+09:00,0.8,�k,2.1,�k�k��,0,86.8,0,0,0,0,0,0,1009.1,1023.8
2022-02-28T00:12:00+09:00,0.8,�k,2.1,�k�k��,0,86.9,0,0,0,0,0,0,1009.2,1023.9
2022-02-28T00:13:00+09:00,0.9,�k,2.1,�k�k��,0,86.9,0,0,0,0,0,0,1009.2,1023.9
2022-02-28T00:14:00+09:00,0.9,�k�k��,2.1,�k�k��,-0.1,86.7,0,0,0,0,0,0,1009.2,1023.9
2022-02-28T00:15:00+09:00,0.9,�k�k��,2.1,�k�k��,-0.2,86.4,0,0,0,0,0,0,1009.2,1023.9
2022-02-28T00:16:00+09:00,0.9,�k�k��,2.1,�k�k��,-0.2,86.6,0,0,0,0,0,0,1009.2,1023.9
2022-02-28T00:17:00+09:00,0.9,�k�k��,2.1,�k�k��,-0.2,86.8,0,0,0,0,0,0,1009.2,1023.9
2022-02-28T00:18:00+09:00,0.8,�k,2.1,�k�k��,-0.1,87,0,0,0,0,0,0,1009.2,1023.9
2022-02-28T00:19:00+09:00,0.8,�k,2.1,�k�k��,0,87.4,0,0,0,0,0,0,1009.2,1023.9
2022-02-28T00:20:00+09:00,0.7,�k,2,�k��,0,87.8,0,0,0,0,0,0,1009.2,1023.9
2022-02-28T00:21:00+09:00,0.6,�k�k��,2,�k��,-0.2,87.4,0,0,0,0,0,0,1009.2,1023.9
2022-02-28T00:22:00+09:00,0.5,�k�k��,1.5,�k,-0.2,87,0,0,0,0,0,0,1009.2,1023.9
2022-02-28T00:23:00+09:00,0.5,�k�k��,1.2,�k�k��,-0.3,87,0,0,0,0,0,0,1009.2,1023.9
2022-02-28T00:24:00+09:00,0.4,�k�k��,1.1,�k��,-0.3,87,0,0,0,0,0,0,1009.2,1023.9
2022-02-28T00:25:00+09:00,0.5,�k�k��,1.1,�k��,-0.3,87.4,0,0,0,0,0,0,1009.2,1023.9
2022-02-28T00:26:00+09:00,0.5,�k�k��,1.1,�k��,-0.2,87.7,0,0,0,0,0,0,1009.3,1024
2022-02-28T00:27:00+09:00,0.5,�k�k��,1.1,�k��,-0.2,87.7,0,0,0,0,0,0,1009.2,1023.9
2022-02-28T00:28:00+09:00,0.5,�k�k��,1.2,�k,-0.2,87.9,0,0,0,0,0,0,1009.3,1024
2022-02-28T00:29:00+09:00,0.5,�k�k��,1.2,�k,-0.1,88,0,0,0,0,0,0,1009.3,1024
2022-02-28T00:30:00+09:00,0.5,�k�k��,1.6,�k,-0.1,88.3,0,0,0,0,0,0,1009.4,1024.1
2022-02-28T00:31:00+09:00,0.6,�k,1.7,�k�k��,-0.1,88.3,0,0,0,0,0,0,1009.4,1024.1
2022-02-28T00:32:00+09:00,0.7,�k,1.7,�k�k��,-0.1,88.1,0,0,0,0,0,0,1009.4,1024.1
2022-02-28T00:33:00+09:00,0.7,�k,1.7,�k�k��,-0.1,88.2,0,0,0,0,0,0,1009.4,1024.1
2022-02-28T00:34:00+09:00,0.7,�k,1.7,�k�k��,-0.2,87.9,0,0,0,0,0,0,1009.4,1024.1
2022-02-28T00:35:00+09:00,0.7,�k,1.7,�k�k��,-0.2,87.9,0,0,0,0,0,0,1009.5,1024.2
2022-02-28T00:36:00+09:00,0.7,�k,1.7,�k�k��,-0.1,87.8,0,0,0,0,0,0,1009.5,1024.2
2022-02-28T00:37:00+09:00,0.7,�k,1.7,�k�k��,-0.2,87.9,0,0,0,0,0,0,1009.5,1024.2
2022-02-28T00:38:00+09:00,0.7,�k,1.7,�k�k��,-0.2,87.8,0,0,0,0,0,0,1009.5,1024.2
2022-02-28T00:39:00+09:00,0.7,�k,1.7,�k�k��,-0.2,87.6,0,0,0,0,0,0,1009.5,1024.2
2022-02-28T00:40:00+09:00,0.6,�k,1.7,�k�k��,-0.2,87.9,0,0,0,0,0,0,1009.5,1024.2
2022-02-28T00:41:00+09:00,0.5,�k,1.2,�k,-0.2,87.7,0,0,0,0,0,0,1009.4,1024.1
2022-02-28T00:42:00+09:00,0.4,�k�k��,1.2,�k,-0.2,88.1,0,0,0,0,0,0,1009.5,1024.2
2022-02-28T00:43:00+09:00,0.4,�k�k��,1.2,�k,-0.2,88,0,0,0,0,0,0,1009.5,1024.2
2022-02-28T00:44:00+09:00,0.4,�k�k��,1.2,�k,-0.3,87.8,0,0,0,0,0,0,1009.5,1024.2
2022-02-28T00:45:00+09:00,0.3,�k�k��,1.2,�k,-0.3,87.7,0,0,0,0,0,0,1009.5,1024.2
2022-02-28T00:46:00+09:00,0.2,�É�,0.7,���k��,-0.4,87.5,0,0,0,0,0,0,1009.5,1024.2
2022-02-28T00:47:00+09:00,0.2,�É�,0.7,���k��,-0.3,87.7,0,0,0,0,0,0,1009.6,1024.3
2022-02-28T00:48:00+09:00,0.3,�k�k��,0.8,�k��,-0.3,87.9,0,0,0,0,0,0,1009.6,1024.3
2022-02-28T00:49:00+09:00,0.3,�k,1.1,�k�k��,-0.1,88.5,0,0,0,0,0,0,1009.6,1024.3
2022-02-28T00:50:00+09:00,0.4,�k,1.2,�k��,-0.1,88.9,0,0,0,0,0,0,1009.6,1024.3
2022-02-28T00:51:00+09:00,0.5,�k,1.2,�k��,-0.2,88.5,0,0,0,0,0,0,1009.7,1024.4
2022-02-28T00:52:00+09:00,0.5,�k,1.2,�k��,-0.2,88.3,0,0,0,0,0,0,1009.7,1024.4
2022-02-28T00:53:00+09:00,0.6,�k,1.2,�k��,-0.2,88.2,0,0,0,0,0,0,1009.7,1024.4
2022-02-28T00:54:00+09:00,0.6,�k�k��,1.2,�k��,-0.3,88.1,0,0,0,0,0,0,1009.7,1024.4
2022-02-28T00:55:00+09:00,0.6,�k�k��,1.2,�k��,-0.3,88.1,0,0,0,0,0,0,1009.7,1024.4
2022-02-28T00:56:00+09:00,0.6,�k�k��,1.2,�k��,-0.4,87.7,0,0,0,0,0,0,1009.8,1024.5
2022-02-28T00:57:00+09:00,0.6,�k,1.2,�k��,-0.5,87.5,0,0,0,0,0,0,1009.7,1024.5
2022-02-28T00:58:00+09:00,0.6,�k,1.2,�k��,-0.4,87.5,0,0,0,0,0,0,1009.7,1024.4
2022-02-28T00:59:00+09:00,0.6,�k�k��,1.2,�k��,-0.6,87.3,0,0,0,0,0,0,1009.7,1024.5
2022-02-28T01:00:00+09:00,0.5,�k�k��,1.2,�k�k��,-0.4,88,0,0,0,0,0,0,1009.7,1024.4
2022-02-28T01:01:00+09:00,0.4,�k��,1.1,�k�k��,-0.5,88.1,0,0,0,0,0,0,1009.7,1024.5
2022-02-28T01:02:00+09:00,0.4,�k��,1,��,-0.5,88.1,0,0,0,0,0,0,1009.7,1024.5
2022-02-28T01:03:00+09:00,0.4,�k��,1,��,-0.5,88,0,0,0,0,0,0,1009.7,1024.5
2022-02-28T01:04:00+09:00,0.4,���k��,1,��,-0.3,88.6,0,0,0,0,0,0,1009.7,1024.4
2022-02-28T01:05:00+09:00,0.3,���k��,1,��,-0.4,88.5,0,0,0,0,0,0,1009.7,1024.4
2022-02-28T01:06:00+09:00,0.4,���k��,1,��,-0.5,88.3,0,0,0,0,0,0,1009.7,1024.5
2022-02-28T01:07:00+09:00,0.4,���k��,1,��,-0.5,88.2,0,0,0,0,0,0,1009.6,1024.3
2022-02-28T01:08:00+09:00,0.4,�k��,1,��,-0.5,88.5,0,0,0,0,0,0,1009.7,1024.5
2022-02-28T01:09:00+09:00,0.4,�k��,0.7,�k��,-0.3,88.6,0,0,0,0,0,0,1009.7,1024.4
2022-02-28T01:10:00+09:00,0.4,�k��,0.7,�k��,-0.4,88.9,0,0,0,0,0,0,1009.7,1024.4
2022-02-28T01:11:00+09:00,0.4,�k��,0.7,�k��,-0.5,88.5,0,0,0,0,0,0,1009.8,1024.6
2022-02-28T01:12:00+09:00,0.4,�k��,0.7,�k��,-0.7,87.9,0,0,0,0,0,0,1009.8,1024.6
2022-02-28T01:13:00+09:00,0.4,�k��,0.7,�k��,-0.7,87.8,0,0,0,0,0,0,1009.7,1024.5
2022-02-28T01:14:00+09:00,0.3,�k��,0.7,�k��,-0.7,87.8,0,0,0,0,0,0,1009.8,1024.6
2022-02-28T01:15:00+09:00,0.3,�k�k��,0.7,�k��,-0.7,88.2,0,0,0,0,0,0,1009.8,1024.6
2022-02-28T01:16:00+09:00,0.3,�k�k��,0.7,�k��,-0.6,88.5,0,0,0,0,0,0,1009.8,1024.6
2022-02-28T01:17:00+09:00,0.3,�k�k��,0.7,�k��,-0.6,88.7,0,0,0,0,0,0,1009.8,1024.6
2022-02-28T01:18:00+09:00,0.3,�k��,0.7,�k��,-0.4,88.9,0,0,0,0,0,0,1009.8,1024.5
2022-02-28T01:19:00+09:00,0.3,�k��,0.6,�k��,-0.5,88.8,0,0,0,0,0,0,1009.8,1024.6
2022-02-28T01:20:00+09:00,0.3,�k��,0.8,���k��,-0.6,88.5,0,0,0,0,0,0,1009.8,1024.6
2022-02-28T01:21:00+09:00,0.3,�k��,1.4,���k��,-0.7,87.9,0,0,0,0,0,0,1009.8,1024.6
2022-02-28T01:22:00+09:00,0.4,�k��,1.6,��,-0.7,88.1,0,0,0,0,0,0,1009.9,1024.7
2022-02-28T01:23:00+09:00,0.5,�k��,1.6,��,-0.9,87.5,0,0,0,0,0,0,1009.9,1024.7
2022-02-28T01:24:00+09:00,0.6,�k��,1.6,��,-0.9,87.2,0,0,0,0,0,0,1009.8,1024.6
2022-02-28T01:25:00+09:00,0.7,���k��,1.6,��,-0.8,87.3,0,0,0,0,0,0,1009.8,1024.6
2022-02-28T01:26:00+09:00,0.8,���k��,1.6,��,-0.6,88.2,0,0,0,0,0,0,1009.8,1024.6
2022-02-28T01:27:00+09:00,0.9,���k��,1.6,��,-0.5,88.3,0,0,0,0,0,0,1009.8,1024.6
2022-02-28T01:28:00+09:00,1,���k��,1.6,��,-0.7,87.4,0,0,0,0,0,0,1009.8,1024.6
2022-02-28T01:29:00+09:00,1,���k��,1.6,��,-0.7,87.1,0,0,0,0,0,0,1009.8,1024.6
2022-02-28T01:30:00+09:00,1.1,���k��,1.7,���k��,-0.7,87,0,0,0,0,0,0,1009.8,1024.6
2022-02-28T01:31:00+09:00,1.1,��,1.7,���k��,-0.5,87.5,0,0,0,0,0,0,1009.8,1024.6
2022-02-28T01:32:00+09:00,1.1,���k��,1.7,���k��,-0.4,87.5,0,0,0,0,0,0,1009.8,1024.5
2022-02-28T01:33:00+09:00,1.1,���k��,1.7,���k��,-0.8,86.8,0,0,0,0,0,0,1009.8,1024.6
2022-02-28T01:34:00+09:00,1.1,���k��,1.7,���k��,-0.9,85.5,0,0,0,0,0,0,1009.8,1024.6
2022-02-28T01:35:00+09:00,1.1,���k��,1.7,���k��,-1,85.3,0,0,0,0,0,0,1009.8,1024.6
2022-02-28T01:36:00+09:00,1.1,���k��,1.7,���k��,-0.9,85.7,0,0,0,0,0,0,1009.9,1024.7
2022-02-28T01:37:00+09:00,1.1,���k��,1.7,���k��,-0.7,86.3,0,0,0,0,0,0,1009.9,1024.7
2022-02-28T01:38:00+09:00,1.1,���k��,1.7,���k��,-0.6,86.9,0,0,0,0,0,0,1009.8,1024.6
2022-02-28T01:39:00+09:00,1.1,���k��,1.7,���k��,-0.8,86.6,0,0,0,0,0,0,1009.8,1024.6
2022-02-28T01:40:00+09:00,1,���k��,1.7,��,-0.6,86.5,0,0,0,0,0,0,1009.8,1024.6
2022-02-28T01:41:00+09:00,1,���k��,1.4,���k��,-0.7,86.4,0,0,0,0,0,0,1009.8,1024.6
2022-02-28T01:42:00+09:00,0.9,�k��,1.3,���k��,-0.8,86.1,0,0,0,0,0,0,1009.8,1024.6
2022-02-28T01:43:00+09:00,0.9,�k��,1.3,���k��,-0.8,85.9,0,0,0,0,0,0,1009.8,1024.6
2022-02-28T01:44:00+09:00,0.8,�k��,1.3,���k��,-0.8,85.9,0,0,0,0,0,0,1009.8,1024.6
2022-02-28T01:45:00+09:00,0.8,�k��,1.5,�k,-0.8,86,0,0,0,0,0,0,1009.8,1024.6
2022-02-28T01:46:00+09:00,0.7,�k�k��,1.5,�k,-1,85.9,0,0,0,0,0,0,1009.8,1024.6
2022-02-28T01:47:00+09:00,0.7,�k�k��,1.5,�k,-0.9,85.9,0,0,0,0,0,0,1009.8,1024.6
2022-02-28T01:48:00+09:00,0.6,�k�k��,1.5,�k,-1,85.9,0,0,0,0,0,0,1009.8,1024.6
2022-02-28T01:49:00+09:00,0.6,�k�k��,1.5,�k,-1,86,0,0,0,0,0,0,1009.8,1024.6
2022-02-28T01:50:00+09:00,0.5,�k�k��,1.5,�k,-1,86.2,0,0,0,0,0,0,1009.8,1024.6
2022-02-28T01:51:00+09:00,0.5,�k�k��,1.5,�k,-1,86.7,0,0,0,0,0,0,1009.7,1024.5
2022-02-28T01:52:00+09:00,0.5,�k,1.5,�k,-1,87.1,0,0,0,0,0,0,1009.7,1024.5
2022-02-28T01:53:00+09:00,0.6,�k,1.5,�k,-1,86.9,0,0,0,0,0,0,1009.7,1024.5
2022-02-28T01:54:00+09:00,0.6,�k,1.5,�k,-0.9,87.3,0,0,0,0,0,0,1009.7,1024.5
2022-02-28T01:55:00+09:00,0.6,�k,1.4,�k�k��,-1,87.6,0,0,0,0,0,0,1009.7,1024.5
2022-02-28T01:56:00+09:00,0.6,�k,1.5,�k,-0.8,87.9,0,0,0,0,0,0,1009.7,1024.5
2022-02-28T01:57:00+09:00,0.6,�k,1.5,�k,-0.9,88.2,0,0,0,0,0,0,1009.7,1024.5
2022-02-28T01:58:00+09:00,0.7,�k,1.6,�k�k��,-0.9,88.2,0,0,0,0,0,0,1009.6,1024.4
2022-02-28T01:59:00+09:00,0.7,�k,1.6,�k�k��,-1,87.8,0,0,0,0,0,0,1009.6,1024.4
2022-02-28T02:00:00+09:00,0.7,�k,1.6,�k�k��,-1,88,0,0,0,0,0,0,1009.6,1024.4
2022-02-28T02:01:00+09:00,0.7,�k,1.6,�k�k��,-0.9,88.3,0,0,0,0,0,0,1009.6,1024.4
2022-02-28T02:02:00+09:00,0.7,�k,1.6,�k�k��,-1,88.3,0,0,0,0,0,0,1009.6,1024.4
2022-02-28T02:03:00+09:00,0.6,�k,1.6,�k�k��,-0.9,88.4,0,0,0,0,0,0,1009.6,1024.4
2022-02-28T02:04:00+09:00,0.6,�k,1.6,�k�k��,-1,88.4,0,0,0,0,0,0,1009.6,1024.4
2022-02-28T02:05:00+09:00,0.6,�k,1.6,�k�k��,-1,88.5,0,0,0,0,0,0,1009.6,1024.4
2022-02-28T02:06:00+09:00,0.6,�k,1.6,�k�k��,-1,88.5,0,0,0,0,0,0,1009.6,1024.4
2022-02-28T02:07:00+09:00,0.6,�k�k��,1.6,�k�k��,-0.9,88.7,0,0,0,0,0,0,1009.5,1024.3
2022-02-28T02:08:00+09:00,0.5,�k�k��,1.5,�k�k��,-0.9,89,0,0,0,0,0,0,1009.5,1024.3
2022-02-28T02:09:00+09:00,0.5,�k�k��,1.3,�k�k��,-1,88.9,0,0,0,0,0,0,1009.6,1024.4
2022-02-28T02:10:00+09:00,0.5,�k�k��,1.3,�k�k��,-0.9,89,0,0,0,0,0,0,1009.6,1024.4
2022-02-28T02:11:00+09:00,0.4,�k�k��,1.3,�k�k��,-0.9,88.9,0,0,0,0,0,0,1009.5,1024.3
2022-02-28T02:12:00+09:00,0.4,�k�k��,1.1,�k��,-1,88.9,0,0,0,0,0,0,1009.5,1024.3
2022-02-28T02:13:00+09:00,0.3,�k,1.1,�k��,-1,88.8,0,0,0,0,0,0,1009.6,1024.4
2022-02-28T02:14:00+09:00,0.3,�k,0.9,�k��,-1,88.9,0,0,0,0,0,0,1009.6,1024.4
2022-02-28T02:15:00+09:00,0.3,�k,0.9,�k��,-0.9,89.3,0,0,0,0,0,0,1009.5,1024.3
2022-02-28T02:16:00+09:00,0.2,�É�,0.9,�k��,-0.9,89.3,0,0,0,0,0,0,1009.5,1024.3
2022-02-28T02:17:00+09:00,0.2,�É�,0.8,�k��,-0.9,89.4,0,0,0,0,0,0,1009.5,1024.3
2022-02-28T02:18:00+09:00,0.2,�É�,0.8,�k��,-0.7,89.4,0,0,0,0,0,0,1009.5,1024.3
2022-02-28T02:19:00+09:00,0.2,�É�,0.8,�k��,-1.1,89.2,0,0,0,0,0,0,1009.5,1024.3
2022-02-28T02:20:00+09:00,0.2,�É�,0.7,�k��,-1.2,88.4,0,0,0,0,0,0,1009.5,1024.3
2022-02-28T02:21:00+09:00,0.2,�É�,0.7,�k��,-1.2,88.4,0,0,0,0,0,0,1009.5,1024.3
2022-02-28T02:22:00+09:00,0.1,�É�,0.6,�k�k��,-1.1,89,0,0,0,0,0,0,1009.5,1024.3
2022-02-28T02:23:00+09:00,0.1,�É�,0.6,�k�k��,-0.9,89.6,0,0,0,0,0,0,1009.5,1024.3
2022-02-28T02:24:00+09:00,0.1,�É�,0.6,�k�k��,-0.9,89.8,0,0,0,0,0,0,1009.5,1024.3
2022-02-28T02:25:00+09:00,0.1,�É�,0.6,�k�k��,-0.9,89.6,0,0,0,0,0,0,1009.5,1024.3
2022-02-28T02:26:00+09:00,0.1,�É�,0.8,�k�k��,-1,89.6,0,0,0,0,0,0,1009.5,1024.3
2022-02-28T02:27:00+09:00,0.1,�É�,0.8,�k�k��,-1,89.7,0,0,0,0,0,0,1009.5,1024.3
2022-02-28T02:28:00+09:00,0.2,�É�,0.8,�k�k��,-1,89.7,0,0,0,0,0,0,1009.5,1024.3
2022-02-28T02:29:00+09:00,0.2,�É�,0.8,�k�k��,-1,89.6,0,0,0,0,0,0,1009.5,1024.3
2022-02-28T02:30:00+09:00,0.2,�É�,0.8,�k�k��,-1.1,89.5,0,0,0,0,0,0,1009.5,1024.3
2022-02-28T02:31:00+09:00,0.2,�É�,0.8,�k�k��,-1,89.8,0,0,0,0,0,0,1009.5,1024.3
2022-02-28T02:32:00+09:00,0.2,�É�,0.8,�k�k��,-0.9,89.8,0,0,0,0,0,0,1009.5,1024.3
2022-02-28T02:33:00+09:00,0.2,�É�,0.8,�k�k��,-0.9,90.1,0,0,0,0,0,0,1009.5,1024.3
2022-02-28T02:34:00+09:00,0.2,�É�,0.8,�k�k��,-1,89.8,0,0,0,0,0,0,1009.5,1024.3
2022-02-28T02:35:00+09:00,0.2,�É�,0.8,�k�k��,-1.1,89.3,0,0,0,0,0,0,1009.5,1024.3
2022-02-28T02:36:00+09:00,0.2,�É�,0.6,�k�k��,-1,89.4,0,0,0,0,0,0,1009.5,1024.3
2022-02-28T02:37:00+09:00,0.2,�É�,0.6,�k�k��,-1,89.9,0,0,0,0,0,0,1009.5,1024.3
2022-02-28T02:38:00+09:00,0.2,�É�,0.4,��,-1.2,89.3,0,0,0,0,0,0,1009.5,1024.3
2022-02-28T02:39:00+09:00,0.2,�É�,0.5,�k��,-1.2,89.3,0,0,0,0,0,0,1009.5,1024.3
2022-02-28T02:40:00+09:00,0.2,�É�,0.5,�k��,-1.2,89.3,0,0,0,0,0,0,1009.4,1024.2
2022-02-28T02:41:00+09:00,0.1,�É�,0.5,�k��,-1.2,88.9,0,0,0,0,0,0,1009.4,1024.2
2022-02-28T02:42:00+09:00,0.1,�É�,0.5,�k��,-1.1,89.6,0,0,0,0,0,0,1009.5,1024.3
2022-02-28T02:43:00+09:00,0.2,�É�,0.5,�k��,-1.2,89.7,0,0,0,0,0,0,1009.5,1024.3
2022-02-28T02:44:00+09:00,0.2,�É�,0.5,�k��,-1.3,89.2,0,0,0,0,0,0,1009.5,1024.3
2022-02-28T02:45:00+09:00,0.2,�É�,0.5,�k��,-1.2,89.4,0,0,0,0,0,0,1009.5,1024.3
2022-02-28T02:46:00+09:00,0.2,�É�,0.5,�k��,-1.3,89.2,0,0,0,0,0,0,1009.5,1024.3
2022-02-28T02:47:00+09:00,0.2,�É�,0.5,�k��,-1.4,89,0,0,0,0,0,0,1009.5,1024.3
2022-02-28T02:48:00+09:00,0.2,�É�,0.6,�k�k��,-1.3,89.4,0,0,0,0,0,0,1009.5,1024.3
2022-02-28T02:49:00+09:00,0.2,�É�,0.6,�k�k��,-1.3,89.5,0,0,0,0,0,0,1009.5,1024.3
2022-02-28T02:50:00+09:00,0.3,�k��,0.6,�k�k��,-1.3,89.4,0,0,0,0,0,0,1009.5,1024.3
2022-02-28T02:51:00+09:00,0.3,�k��,0.8,�k��,-1.4,89.4,0,0,0,0,0,0,1009.5,1024.3
2022-02-28T02:52:00+09:00,0.4,�k��,0.8,�k��,-1.5,89.2,0,0,0,0,0,0,1009.4,1024.2
2022-02-28T02:53:00+09:00,0.4,�k��,0.8,�k��,-1.4,89.3,0,0,0,0,0,0,1009.5,1024.3
2022-02-28T02:54:00+09:00,0.4,�k��,0.9,���k��,-1.5,89.3,0,0,0,0,0,0,1009.5,1024.3
2022-02-28T02:55:00+09:00,0.4,���k��,0.9,���k��,-1.6,89.1,0,0,0,0,0,0,1009.5,1024.3
2022-02-28T02:56:00+09:00,0.4,���k��,0.9,���k��,-1.6,89.2,0,0,0,0,0,0,1009.4,1024.2
2022-02-28T02:57:00+09:00,0.4,���k��,0.9,���k��,-1.4,89.7,0,0,0,0,0,0,1009.4,1024.2
2022-02-28T02:58:00+09:00,0.4,���k��,1.1,�k��,-1.4,89.8,0,0,0,0,0,0,1009.5,1024.3
2022-02-28T02:59:00+09:00,0.5,���k��,1.6,���k��,-1.3,90.1,0,0,0,0,0,0,1009.5,1024.3
2022-02-28T03:00:00+09:00,0.6,���k��,1.6,���k��,-1.3,90.1,0,0,0,0,0,0,1009.4,1024.2
2022-02-28T03:01:00+09:00,0.7,���k��,1.6,���k��,-1.4,90,0,0,0,0,0,0,1009.4,1024.2
2022-02-28T03:02:00+09:00,0.7,���k��,1.6,���k��,-1.4,89.6,0,0,0,0,0,0,1009.4,1024.2
2022-02-28T03:03:00+09:00,0.7,���k��,1.6,���k��,-1.6,89.3,0,0,0,0,0,0,1009.4,1024.2
2022-02-28T03:04:00+09:00,0.8,���k��,1.6,���k��,-1.6,89.3,0,0,0,0,0,0,1009.4,1024.2
2022-02-28T03:05:00+09:00,0.8,���k��,1.6,���k��,-1.6,89.1,0,0,0,0,0,0,1009.4,1024.2
2022-02-28T03:06:00+09:00,0.9,���k��,1.6,���k��,-1.4,89.6,0,0,0,0,0,0,1009.5,1024.3
2022-02-28T03:07:00+09:00,1,���k��,1.6,���k��,-1.3,90.4,0,0,0,0,0,0,1009.5,1024.3
2022-02-28T03:08:00+09:00,1,��,1.6,���k��,-1.3,90.1,0,0,0,0,0,0,1009.5,1024.3
2022-02-28T03:09:00+09:00,1,��,1.6,���k��,-1.5,89.5,0,0,0,0,0,0,1009.4,1024.2
2022-02-28T03:10:00+09:00,0.9,��,1.4,��,-1.5,89.2,0,0,0,0,0,0,1009.4,1024.2
2022-02-28T03:11:00+09:00,0.9,��,1.4,��,-1.6,89.1,0,0,0,0,0,0,1009.4,1024.2
2022-02-28T03:12:00+09:00,0.9,��,1.4,��,-1.6,89.1,0,0,0,0,0,0,1009.4,1024.2
2022-02-28T03:13:00+09:00,0.9,��,1.4,��,-1.5,89.1,0,0,0,0,0,0,1009.4,1024.2
2022-02-28T03:14:00+09:00,0.9,��,1.4,��,-1.4,89.5,0,0,0,0,0,0,1009.4,1024.2
2022-02-28T03:15:00+09:00,0.9,��,1.3,��,-1.4,89.6,0,0,0,0,0,0,1009.4,1024.2
2022-02-28T03:16:00+09:00,0.9,��,1.3,��,-1.5,89.3,0,0,0,0,0,0,1009.5,1024.3
2022-02-28T03:17:00+09:00,0.9,��,1.3,��,-1.3,89.6,0,0,0,0,0,0,1009.5,1024.3
2022-02-28T03:18:00+09:00,0.9,��,1.3,��,-1.3,89.8,0,0,0,0,0,0,1009.5,1024.3
2022-02-28T03:19:00+09:00,0.9,��,1.3,��,-1.5,89.4,0,0,0,0,0,0,1009.5,1024.3
2022-02-28T03:20:00+09:00,0.8,��,1.3,��,-1.6,88.6,0,0,0,0,0,0,1009.5,1024.3
2022-02-28T03:21:00+09:00,0.8,��,1.3,��,-1.6,88.6,0,0,0,0,0,0,1009.5,1024.3
2022-02-28T03:22:00+09:00,0.8,���k��,1.2,��,-1.5,88.9,0,0,0,0,0,0,1009.5,1024.3
2022-02-28T03:23:00+09:00,0.7,���k��,1.2,��,-1.4,89.4,0,0,0,0,0,0,1009.5,1024.3
2022-02-28T03:24:00+09:00,0.7,���k��,1,���쐼,-1.3,89.5,0,0,0,0,0,0,1009.5,1024.3
2022-02-28T03:25:00+09:00,0.6,���k��,1,���쐼,-1.5,89.2,0,0,0,0,0,0,1009.5,1024.3
2022-02-28T03:26:00+09:00,0.6,���k��,1,���쐼,-1.6,88.3,0,0,0,0,0,0,1009.5,1024.3
2022-02-28T03:27:00+09:00,0.5,���k��,1,���쐼,-1.6,88.4,0,0,0,0,0,0,1009.5,1024.3
2022-02-28T03:28:00+09:00,0.5,���k��,1,���쐼,-1.8,88.2,0,0,0,0,0,0,1009.5,1024.3
2022-02-28T03:29:00+09:00,0.5,���k��,1,���쐼,-1.9,87.7,0,0,0,0,0,0,1009.5,1024.3
2022-02-28T03:30:00+09:00,0.5,���k��,1.2,���k��,-1.8,87.9,0,0,0,0,0,0,1009.5,1024.3
2022-02-28T03:31:00+09:00,0.6,���k��,1.2,���k��,-1.8,88.3,0,0,0,0,0,0,1009.5,1024.3
2022-02-28T03:32:00+09:00,0.6,���k��,1.3,��,-1.8,88.3,0,0,0,0,0,0,1009.5,1024.3
2022-02-28T03:33:00+09:00,0.7,���k��,1.3,��,-1.8,88.6,0,0,0,0,0,0,1009.5,1024.3
2022-02-28T03:34:00+09:00,0.7,���k��,1.3,��,-1.9,88,0,0,0,0,0,0,1009.5,1024.3
2022-02-28T03:35:00+09:00,0.7,��,1.3,��,-1.9,88.2,0,0,0,0,0,0,1009.5,1024.3
2022-02-28T03:36:00+09:00,0.7,��,1.3,��,-1.7,88.8,0,0,0,0,0,0,1009.5,1024.3
2022-02-28T03:37:00+09:00,0.7,��,1.3,��,-1.4,89.5,0,0,0,0,0,0,1009.5,1024.3
2022-02-28T03:38:00+09:00,0.7,��,1.3,��,-1.5,89.6,0,0,0,0,0,0,1009.5,1024.3
2022-02-28T03:39:00+09:00,0.6,��,1.3,��,-1.5,89.4,0,0,0,0,0,0,1009.5,1024.3
2022-02-28T03:40:00+09:00,0.5,��,1.3,��,-1.5,89,0,0,0,0,0,0,1009.5,1024.3
2022-02-28T03:41:00+09:00,0.4,���쐼,1.3,��,-1.6,89,0,0,0,0,0,0,1009.5,1024.3
2022-02-28T03:42:00+09:00,0.3,�쐼,1.2,���쐼,-1.6,89,0,0,0,0,0,0,1009.5,1024.3
2022-02-28T03:43:00+09:00,0.2,�É�,1.2,���쐼,-1.7,88.8,0,0,0,0,0,0,1009.4,1024.2
2022-02-28T03:44:00+09:00,0.2,�É�,0.8,���쐼,-1.6,88.9,0,0,0,0,0,0,1009.4,1024.2
2022-02-28T03:45:00+09:00,0.1,�É�,0.6,���k��,-1.5,89.2,0,0,0,0,0,0,1009.4,1024.2
2022-02-28T03:46:00+09:00,0.1,�É�,0.5,��쐼,-1.7,88.9,0,0,0,0,0,0,1009.4,1024.2
2022-02-28T03:47:00+09:00,0.1,�É�,0.5,��쐼,-1.9,88.1,0,0,0,0,0,0,1009.4,1024.2
2022-02-28T03:48:00+09:00,0.1,�É�,0.5,��쐼,-1.6,88.8,0,0,0,0,0,0,1009.4,1024.2
2022-02-28T03:49:00+09:00,0.1,�É�,0.5,��쐼,-1.6,89.2,0,0,0,0,0,0,1009.4,1024.2
2022-02-28T03:50:00+09:00,0.1,�É�,0.5,��쐼,-1.4,89.5,0,0,0,0,0,0,1009.4,1024.2
2022-02-28T03:51:00+09:00,0.1,�É�,0.5,��쐼,-1.6,89.1,0,0,0,0,0,0,1009.4,1024.2
2022-02-28T03:52:00+09:00,0.1,�É�,0.5,��쐼,-1.6,89,0,0,0,0,0,0,1009.4,1024.2
2022-02-28T03:53:00+09:00,0.1,�É�,0.5,��쐼,-1.7,88.7,0,0,0,0,0,0,1009.5,1024.3
2022-02-28T03:54:00+09:00,0.1,�É�,0.4,��,-1.8,88.2,0,0,0,0,0,0,1009.5,1024.3
2022-02-28T03:55:00+09:00,0.2,�É�,0.4,��,-1.7,88.6,0,0,0,0,0,0,1009.5,1024.3
2022-02-28T03:56:00+09:00,0.2,�É�,0.4,��,-1.9,88.2,0,0,0,0,0,0,1009.5,1024.3
2022-02-28T03:57:00+09:00,0.2,�É�,0.4,��,-2,88,0,0,0,0,0,0,1009.5,1024.3
2022-02-28T03:58:00+09:00,0.2,�É�,0.4,��,-2.1,87.9,0,0,0,0,0,0,1009.5,1024.3
2022-02-28T03:59:00+09:00,0.2,�É�,0.4,��,-2,88.6,0,0,0,0,0,0,1009.5,1024.3
2022-02-28T04:00:00+09:00,0.3,�k��,0.4,��,-1.9,88.8,0,0,0,0,0,0,1009.5,1024.3
2022-02-28T04:01:00+09:00,0.3,�k��,0.4,��,-1.9,88.9,0,0,0,0,0,0,1009.5,1024.3
2022-02-28T04:02:00+09:00,0.3,�k��,0.5,�k,-1.9,89.1,0,0,0,0,0,0,1009.5,1024.3
2022-02-28T04:03:00+09:00,0.3,�k��,0.5,�k,-2,88.7,0,0,0,0,0,0,1009.5,1024.3
2022-02-28T04:04:00+09:00,0.3,�k��,0.6,�k��,-2,88.6,0,0,0,0,0,0,1009.5,1024.3
2022-02-28T04:05:00+09:00,0.4,�k��,1,�k��,-2.1,89,0,0,0,0,0,0,1009.5,1024.3
2022-02-28T04:06:00+09:00,0.4,�k�k��,1,�k��,-2.1,88.7,0,0,0,0,0,0,1009.5,1024.3
2022-02-28T04:07:00+09:00,0.4,�k�k��,1,�k��,-2,88.7,0,0,0,0,0,0,1009.6,1024.4
2022-02-28T04:08:00+09:00,0.4,�k�k��,1,�k��,-1.9,89.2,0,0,0,0,0,0,1009.5,1024.3
2022-02-28T04:09:00+09:00,0.4,�k�k��,1,�k��,-1.9,89.4,0,0,0,0,0,0,1009.6,1024.4
2022-02-28T04:10:00+09:00,0.4,�k�k��,1,�k��,-1.8,89.6,0,0,0,0,0,0,1009.6,1024.4
2022-02-28T04:11:00+09:00,0.5,�k�k��,1,�k��,-1.9,89.5,0,0,0,0,0,0,1009.6,1024.4
2022-02-28T04:12:00+09:00,0.5,�k�k��,1,�k��,-2,89.2,0,0,0,0,0,0,1009.6,1024.4
2022-02-28T04:13:00+09:00,0.5,�k�k��,1,�k��,-2,88.7,0,0,0,0,0,0,1009.6,1024.4
2022-02-28T04:14:00+09:00,0.5,�k�k��,1,�k��,-2,88.8,0,0,0,0,0,0,1009.6,1024.4
2022-02-28T04:15:00+09:00,0.5,�k�k��,1,�k��,-2,89.2,0,0,0,0,0,0,1009.7,1024.5
2022-02-28T04:16:00+09:00,0.5,�k�k��,1,�k��,-1.9,88.8,0,0,0,0,0,0,1009.7,1024.5
2022-02-28T04:17:00+09:00,0.5,�k�k��,1,�k��,-2.1,89,0,0,0,0,0,0,1009.7,1024.5
2022-02-28T04:18:00+09:00,0.5,�k�k��,1,�k��,-2.1,88.6,0,0,0,0,0,0,1009.7,1024.5
2022-02-28T04:19:00+09:00,0.5,�k�k��,1,�k��,-2.1,88.9,0,0,0,0,0,0,1009.7,1024.5
2022-02-28T04:20:00+09:00,0.5,�k�k��,1,�k��,-2.1,88.9,0,0,0,0,0,0,1009.7,1024.5
2022-02-28T04:21:00+09:00,0.5,�k�k��,1,�k��,-2,89.3,0,0,0,0,0,0,1009.7,1024.5
2022-02-28T04:22:00+09:00,0.5,�k�k��,1,�k��,-2,89.4,0,0,0,0,0,0,1009.7,1024.5
2022-02-28T04:23:00+09:00,0.5,�k�k��,1,�k��,-2.1,89.2,0,0,0,0,0,0,1009.7,1024.5
2022-02-28T04:24:00+09:00,0.4,�k�k��,1,�k��,-2.2,88.7,0,0,0,0,0,0,1009.7,1024.5
2022-02-28T04:25:00+09:00,0.4,�k�k��,0.9,�k��,-2.2,89,0,0,0,0,0,0,1009.7,1024.5
2022-02-28T04:26:00+09:00,0.4,�k�k��,0.8,�k��,-2.2,89.1,0,0,0,0,0,0,1009.7,1024.5
2022-02-28T04:27:00+09:00,0.4,�k�k��,0.8,�k��,-2.1,89.4,0,0,0,0,0,0,1009.7,1024.5
2022-02-28T04:28:00+09:00,0.4,�k��,0.9,���k��,-2.1,89.6,0,0,0,0,0,0,1009.7,1024.5
2022-02-28T04:29:00+09:00,0.4,�k��,0.9,���k��,-2.1,89.6,0,0,0,0,0,0,1009.7,1024.5
2022-02-28T04:30:00+09:00,0.4,�k��,0.9,���k��,-2.1,89.5,0,0,0,0,0,0,1009.7,1024.5
2022-02-28T04:31:00+09:00,0.4,�k��,0.9,���k��,-2,89.5,0,0,0,0,0,0,1009.7,1024.5
2022-02-28T04:32:00+09:00,0.5,�k��,0.9,���k��,-2.1,89.4,0,0,0,0,0,0,1009.7,1024.5
2022-02-28T04:33:00+09:00,0.5,�k��,1,���k��,-2.1,89.4,0,0,0,0,0,0,1009.7,1024.5
2022-02-28T04:34:00+09:00,0.6,�k��,1.2,���k��,-2,89.4,0,0,0,0,0,0,1009.8,1024.6
2022-02-28T04:35:00+09:00,0.7,�k��,1.2,���k��,-2.1,89.6,0,0,0,0,0,0,1009.8,1024.6
2022-02-28T04:36:00+09:00,0.7,�k��,1.2,���k��,-2.1,89.5,0,0,0,0,0,0,1009.8,1024.6
2022-02-28T04:37:00+09:00,0.7,�k��,1.2,���k��,-2,89.6,0,0,0,0,0,0,1009.8,1024.6
2022-02-28T04:38:00+09:00,0.6,�k��,1.2,���k��,-1.9,89.7,0,0,0,0,0,0,1009.7,1024.5
2022-02-28T04:39:00+09:00,0.6,�k��,1.2,���k��,-1.9,90,0,0,0,0,0,0,1009.7,1024.5
2022-02-28T04:40:00+09:00,0.6,�k��,1.2,���k��,-1.9,89.6,0,0,0,0,0,0,1009.8,1024.6
2022-02-28T04:41:00+09:00,0.6,�k��,1.2,���k��,-2,89.7,0,0,0,0,0,0,1009.7,1024.5
2022-02-28T04:42:00+09:00,0.5,�k��,1.2,���k��,-2,89.4,0,0,0,0,0,0,1009.7,1024.5
2022-02-28T04:43:00+09:00,0.5,�k��,1.2,���k��,-2,89.9,0,0,0,0,0,0,1009.8,1024.6
2022-02-28T04:44:00+09:00,0.4,�k��,1.1,��,-2,89.8,0,0,0,0,0,0,1009.8,1024.6
2022-02-28T04:45:00+09:00,0.4,�k��,1,�k�k��,-2,89.7,0,0,0,0,0,0,1009.8,1024.6
2022-02-28T04:46:00+09:00,0.4,�k��,0.9,�k��,-2,89.6,0,0,0,0,0,0,1009.8,1024.6
2022-02-28T04:47:00+09:00,0.4,�k��,0.9,�k��,-2.1,89.6,0,0,0,0,0,0,1009.8,1024.6
2022-02-28T04:48:00+09:00,0.4,�k��,0.9,�k��,-2.1,89.6,0,0,0,0,0,0,1009.8,1024.6
2022-02-28T04:49:00+09:00,0.5,�k��,0.9,�k��,-2,89.7,0,0,0,0,0,0,1009.8,1024.6
2022-02-28T04:50:00+09:00,0.5,�k��,1,�k��,-1.8,90.3,0,0,0,0,0,0,1009.8,1024.6
2022-02-28T04:51:00+09:00,0.5,�k��,1,�k��,-1.9,90.3,0,0,0,0,0,0,1009.8,1024.6
2022-02-28T04:52:00+09:00,0.5,�k��,1,�k��,-2,90,0,0,0,0,0,0,1009.8,1024.6
2022-02-28T04:53:00+09:00,0.5,�k��,1,�k��,-2,89.7,0,0,0,0,0,0,1009.9,1024.7
2022-02-28T04:54:00+09:00,0.5,�k��,1,�k��,-1.9,90,0,0,0,0,0,0,1009.9,1024.7
2022-02-28T04:55:00+09:00,0.4,�k��,1,�k��,-1.9,90.4,0,0,0,0,0,0,1009.9,1024.7
2022-02-28T04:56:00+09:00,0.3,�k�k��,1,�k��,-2,90.1,0,0,0,0,0,0,1009.9,1024.7
2022-02-28T04:57:00+09:00,0.3,�k�k��,1,�k��,-2,89.7,0,0,0,0,0,0,1009.9,1024.7
2022-02-28T04:58:00+09:00,0.3,�k�k��,1,�k��,-2,90.1,0,0,0,0,0,0,1009.9,1024.7